Terug naar catalogus

STARLINK-32539

ActiefCommunicatieVLEO
NORAD 62022·PAYLOAD·🇺🇸 United States

Gelanceerd Nov 18, 2024 vanaf Vandenberg Space Force Base

Loading…

Volgende Passages (komende 24 uur)

TLE

VersSource: CelesTrak SupGP

Epoch: Sep 15, 2026, 02:49 UTC

1 62022C 24213Q   26258.11784722  .00072532  00000+0  21433-2 0  2580
2 62022  53.1584 354.6757 0001145  95.1707 342.5843 15.34350010    19

Volg STARLINK-32539 in realtime met AllMySat

Download on the App Store